STARLINK-32789, 62529

Orbit data source: Space-Track

STARLINK-32789, 62529 is a payload satellite owned by SpaceX/Seattle (US) in LEO that was launched on Wed, 08 Jan 2025 UTC via an FALCON 9 launch vehicle from the Air Force Eastern Test Range (AFETR). Payloads include a variety of satellites, spacecraft, and rockets equipped with specific instruments for various scientific and technological missions. These include communications satellites like Starlink; space stations such as the ISS; scientific satellites like the Hubble; Earth observation satellites from companies like Planet Labs, Umbra, and HawkEye 360; GPS; miniature CubeSats for education and research; and military/defense satellites.

Loading next visibility...
STARLINK-32789 details
Identifier
62529, 2025-004U
Orbit
LEO
Last TLE update8 hours ago
Origin
Flag of USSpaceX/Seattle (US)
ManufacturerSpaceX/Seattle
MissionOperational spacecraft
Bus & MotorSTARLINK V2M, Unknown motor
Mass730 kg wet, ~700 kg dry
Launch date (UTC)
2025-01-08 (1 month ago)
Launch vehicle
FALCON 9
Launch site
Air Force Eastern Test Range (AFETR)
Object type
Payload
Rocket body
Debris
Shape & HBRUnknown
Radar Cross SectionLarge (>1 m²)

Expand to show TLE details & history

TLE from 8 hours ago
0 STARLINK-32789
1 62529U 25004U   25035.83335648  .00027913  00000-0  48007-3 0  9994
2 62529  42.9984 311.8809 0001403 269.6833  50.6834 15.50570339  5523
Epoch: 2025-02-04T20:00Z
Definitive object data (Epoch: 2025-02-04T20:00:01.999Z)
Latitude-25.95057°
Longitude-154.62608°
Altitude420.94 km
Speed7.66 km/s
True Right ascension18h 42m 27s
True Declination-25° 48' 32"
Sunlit
Object was in daylight at TLE epoch
Visualization TLE readout
Latitude39.08869°
Longitude-65.32126°
Altitude418.128 km
Speed7.665 km/s
Apparent Right ascension21h 36m 05s
Apparent Declination1° 37' 46"
Sunlit
Object is in daylight
Visualization observer readout
Local Sidereal Time06:13:08
Azimuth298.929° NW
Elevation-27.838°
Doppler factor1
Orbital elements
Apogee altitude417.978 km
Perigee altitude416.071 km
Semi-major axis6,795.162 km
Eccentricity0.0001403
Inclination42.9984°
RAAN311.8809°
Arg. of periapsis269.6833°
True anomaly50.69584°
Mean anomaly50.6834°
Eccentric anomaly50.68962°
Mean motion3.87475 °/min
BSTAR0.00048007
Orbital period92.91 mins
Loading maneuver chart data...
Loading historical data...
Loading historical data...
Loading historical data...
Loading historical data...
Loading historical data...
Loading historical data...
Loading historical data...

STARLINK-32789 Visibility forecast

Observer location: undefined°, undefined

Span
Click to sort rows by Start time (UTC) header in descending order
Start Az.
Max El. time (UTC)
Max El. Az.
Max El.
End time (UTC)
End Az.
4 mins2025-02-05 21:07:20.081Z184.507° SSW2025-02-05 21:08:20.081Z157.948° S22.889°2025-02-05 21:11:20.081Z91.492° ESE
4 mins2025-02-05 22:44:20.081Z262.115° W2025-02-05 22:46:20.081Z49.258° ENE40.961°2025-02-05 22:48:20.081Z69.27° E
5 mins2025-02-06 00:21:20.081Z292.69° NW2025-02-06 00:23:20.081Z352.229° N36.211°2025-02-06 00:26:20.081Z75.749° E
5 mins2025-02-06 01:59:20.081Z287.531° WNW2025-02-06 02:01:20.081Z116.249° SE43.755°2025-02-06 02:04:20.081Z110.134° ESE
|